Regional Weather Roundup
Issued by NWS

Home | Current Version | Previous Version | Graphics & Text | Print | Product List | Glossary On
Versions: 1 2 3 4 5 6 7 8 9 10 11 12 13 14 15 16 17 18 19 20 21 22 23 24 25 26 27 28 29 30 31 32 33 34 35 36 37 38 39 40 41 42 43 44 45 46 47 48 49 50
000
ASUS43 KLOT 190558
RWRIL

ILLINOIS REGIONAL WEATHER ROUNDUP
NATIONAL WEATHER SERVICE CHICAGO/ROMEOVILLE IL
100 AM CDT SAT APR 19 2014

NOTE: "FAIR" INDICATES FEW OR NO CLOUDS BELOW 12,000 FEET WITH NO
SIGNIFICANT WEATHER AND/OR OBSTRUCTIONS TO VISIBILITY.

* THESE STATIONS ARE NOT UNDER NWS QUALITY CONTROL. THEY ALSO MAY NOT
  REPORT WEATHER SUCH AS PRECIPITATION OR FOG.

ILZ001-002-007-009-015-016-024-190700-
NORTHWEST ILLINOIS

CITY           SKY/WX    TMP DP  RH WIND       PRES   REMARKS
MOLINE         FAIR      44  34  67 E16       30.32R
6HR MIN TEMP:  44; 6HR MAX TEMP:  60;

$$

ILZ003-004-008-010-011-017-018-190700-
NORTH CENTRAL ILLINOIS

CITY           SKY/WX    TMP DP  RH WIND       PRES   REMARKS
ROCKFORD       NOT AVBL
$$

ILZ005-006-012>014-019>023-190700-
NORTHEAST ILLINOIS

CITY           SKY/WX    TMP DP  RH WIND       PRES   REMARKS
CHICAGO-OHARE  FAIR      38  25  59 NE7       30.37S WCI  33
6HR MIN TEMP:  38; 6HR MAX TEMP:  42;

CHICAGO-MIDWAY FAIR      41  26  55 NE13      30.36F
6HR MIN TEMP:  39; 6HR MAX TEMP:  43;

AURORA         FAIR      38  26  62 NE12      30.35S WCI  30
6HR MIN TEMP:  37; 6HR MAX TEMP:  52;

WAUKEGAN       FAIR      36  27  69 NE10      30.37S WCI  28
6HR MIN TEMP:  34; 6HR MAX TEMP:  36;

DUPAGE AIRPORT FAIR      36  26  67 NE8       30.35F WCI  30
6HR MIN TEMP:  36; 6HR MAX TEMP:  46;

WHEELING       FAIR      38  28  67 NE6       30.39S WCI  33
6HR MIN TEMP:  37; 6HR MAX TEMP:  40;

NORTHERLY ISL    N/A     39  31  73 NE10        N/A  WCI  32
$$

LMZ740>746-190700-
SOUTHERN LAKE MICHIGAN

STATION/POSITION SKY/WX   TEMP    WIND        PRES    VSBY  WAVE
                          AIR SEA DIR/SP/G                  HT/PER
                          (F)     (DEG/KT/KT) (MB)    (MI)  (FT/S)
WAUKEGAN HARBOR            39      20/ 15/ 17 1029.5F
HARRISON CRIB              39      20/ 13/ 16   N/A
BURNHAM HARBOR             39      20/ 13/ 13   N/A
CALUMET HARBOR             38      10/  9/ 11 1029.1R
MICHIGAN CITY              38      20/ 10/ 11   N/A
$$

ILZ025>027-034>036-040-047-049-050-058-095>099-190700-
WEST-CENTRAL ILLINOIS

CITY           SKY/WX    TMP DP  RH WIND       PRES   REMARKS
$$

ILZ028>032-037-038-041>044-048-051>054-059>061-190700-
CENTRAL ILLINOIS

CITY           SKY/WX    TMP DP  RH WIND       PRES   REMARKS
PEORIA         NOT AVBL
SPRINGFIELD    NOT AVBL
TAYLORVILLE    NOT AVBL
$$

ILZ033-039-045-046-055>057-062-063-190700-
EAST-CENTRAL ILLINOIS

CITY           SKY/WX    TMP DP  RH WIND       PRES   REMARKS
CHAMPAIGN      FAIR      44  34  67 NE16      30.30F
MATTOON        FAIR      46  35  65 NE9       30.27F
$$

ILZ079-100>102-190700-
SOUTHWEST ILLINOIS

CITY           SKY/WX    TMP DP  RH WIND       PRES   REMARKS
CAHOKIA*       FAIR      48  44  86 CALM      30.25R
$$

ILZ064>066-069>071-074>076-080>082-084>086-088>090-092>094-190700-
SOUTH-CENTRAL ILLINOIS

CITY           SKY/WX    TMP DP  RH WIND       PRES   REMARKS
CARBONDALE     FAIR      50  45  83 CALM      30.24R
6HR MIN TEMP:  50; 6HR MAX TEMP:  67;

$$

ILZ067-068-072-073-078-083-087-091-190700-
SOUTHEAST ILLINOIS

CITY           SKY/WX    TMP DP  RH WIND       PRES   REMARKS
$$

ABBREVIATIONS USED IN REMARKS
   TC - TEMPERATURE IN CELSIUS
  WCI - WIND CHILL INDEX
   HX - HEAT INDEX
  VSB - VISIBILITY
$$




USA.gov is the U.S. government's official web portal to all federal, state and local government web resources and services.